Hourly Weather Fedorovka

Today, 8 July, Wednesday

Time Temperature Precipitation Wind Pressure Humidity
00:00 +26°C° 0 mm 5 mps 739 mmHg 54%
01:00 +25°C° 0 mm 5 mps 739 mmHg 55%
02:00 +25°C° 0 mm 4 mps 739 mmHg 56%
03:00 +23°C° 0 mm 4 mps 738 mmHg 58%
04:00 +23°C° 0 mm 4 mps 738 mmHg 61%
05:00 +23°C° 0 mm 4 mps 738 mmHg 65%
06:00 +23°C° 0 mm 4 mps 738 mmHg 69%
07:00 +25°C° 0 mm 4 mps 738 mmHg 67%
08:00 +26°C° 0 mm 5 mps 738 mmHg 64%
09:00 +28°C° 0 mm 6 mps 738 mmHg 61%
10:00 +29°C° 0 mm 6 mps 738 mmHg 58%
11:00 +32°C° 0 mm 6 mps 738 mmHg 54%
12:00 +34°C° 0 mm 6 mps 739 mmHg 51%
13:00 +34°C° 0 mm 6 mps 739 mmHg 51%
14:00 +34°C° 0 mm 6 mps 739 mmHg 52%
15:00 +34°C° 0 mm 6 mps 739 mmHg 53%
16:00 +34°C° 0 mm 5 mps 738 mmHg 56%
17:00 +33°C° 0 mm 4 mps 738 mmHg 59%
18:00 +31°C° 0 mm 3 mps 738 mmHg 63%
19:00 +30°C° 0 mm 3 mps 738 mmHg 65%
20:00 +28°C° 0 mm 2 mps 738 mmHg 67%
21:00 +27°C° 0 mm 2 mps 738 mmHg 70%
22:00 +26°C° 0.1 mm 2 mps 738 mmHg 72%
23:00 +25°C° 0.1 mm 2 mps 738 mmHg 74%

Tomorrow, 9 July, Thursday

Time Temperature Precipitation Wind Pressure Humidity
00:00 +24°C° 0.1 mm 2 mps 738 mmHg 76%
01:00 +22°C° 0.4 mm 3 mps 738 mmHg 82%
02:00 +21°C° 0.4 mm 4 mps 738 mmHg 87%
03:00 +20°C° 0.4 mm 5 mps 738 mmHg 93%
04:00 +20°C° 0.1 mm 5 mps 738 mmHg 93%
05:00 +21°C° 0.1 mm 4 mps 738 mmHg 93%
06:00 +21°C° 0.1 mm 4 mps 738 mmHg 93%
07:00 +21°C° 0.1 mm 3 mps 738 mmHg 92%
08:00 +23°C° 0.1 mm 2 mps 739 mmHg 90%
09:00 +23°C° 0.1 mm 2 mps 739 mmHg 88%
10:00 +23°C° 0.8 mm 2 mps 739 mmHg 89%
11:00 +22°C° 0.8 mm 3 mps 740 mmHg 90%
12:00 +21°C° 0.8 mm 4 mps 740 mmHg 91%
13:00 +21°C° 0.4 mm 5 mps 741 mmHg 89%
14:00 +21°C° 0.4 mm 5 mps 741 mmHg 88%
15:00 +21°C° 0.4 mm 6 mps 741 mmHg 87%
16:00 +20°C° 0.1 mm 5 mps 741 mmHg 86%
17:00 +20°C° 0.1 mm 5 mps 742 mmHg 85%
18:00 +19°C° 0.1 mm 5 mps 742 mmHg 84%
19:00 +19°C° 0 mm 4 mps 742 mmHg 85%
20:00 +18°C° 0 mm 4 mps 743 mmHg 87%
21:00 +17°C° 0 mm 3 mps 743 mmHg 89%
22:00 +17°C° 0 mm 3 mps 743 mmHg 91%
23:00 +16°C° 0 mm 3 mps 743 mmHg 92%

Day after tomorrow, 10 July, Friday

Time Temperature Precipitation Wind Pressure Humidity
00:00 +14°C° 0 mm 3 mps 744 mmHg 94%
01:00 +14°C° 0 mm 3 mps 744 mmHg 94%
02:00 +14°C° 0 mm 3 mps 744 mmHg 94%
03:00 +13°C° 0 mm 3 mps 745 mmHg 94%
04:00 +14°C° 0 mm 3 mps 745 mmHg 92%
05:00 +14°C° 0 mm 3 mps 745 mmHg 89%
06:00 +14°C° 0 mm 3 mps 746 mmHg 87%
07:00 +17°C° 0 mm 3 mps 746 mmHg 83%
08:00 +18°C° 0 mm 3 mps 746 mmHg 78%
09:00 +20°C° 0 mm 3 mps 747 mmHg 74%
10:00 +20°C° 0 mm 4 mps 747 mmHg 69%
11:00 +21°C° 0 mm 4 mps 747 mmHg 64%
12:00 +22°C° 0 mm 4 mps 748 mmHg 60%
13:00 +22°C° 0 mm 4 mps 748 mmHg 60%
14:00 +22°C° 0 mm 4 mps 748 mmHg 59%
15:00 +22°C° 0 mm 4 mps 748 mmHg 59%
16:00 +22°C° 0 mm 4 mps 748 mmHg 62%
17:00 +22°C° 0 mm 4 mps 748 mmHg 65%
18:00 +21°C° 0 mm 3 mps 748 mmHg 68%
19:00 +20°C° 0 mm 3 mps 749 mmHg 73%
20:00 +18°C° 0 mm 3 mps 749 mmHg 77%
21:00 +17°C° 0 mm 2 mps 749 mmHg 81%
22:00 +16°C° 0 mm 2 mps 750 mmHg 81%
23:00 +15°C° 0 mm 2 mps 750 mmHg 82%

11 July, Saturday

Time Temperature Precipitation Wind Pressure Humidity
00:00 +15°C° 0 mm 2 mps 750 mmHg 82%
01:00 +14°C° 0 mm 2 mps 750 mmHg 83%
02:00 +14°C° 0 mm 2 mps 750 mmHg 84%
03:00 +14°C° 0 mm 2 mps 750 mmHg 85%
04:00 +14°C° 0 mm 2 mps 751 mmHg 84%
05:00 +15°C° 0 mm 2 mps 751 mmHg 83%
06:00 +15°C° 0 mm 1 mps 751 mmHg 83%
07:00 +18°C° 0 mm 1 mps 751 mmHg 77%
08:00 +20°C° 0 mm 1 mps 751 mmHg 71%
09:00 +21°C° 0 mm 1 mps 752 mmHg 65%
10:00 +22°C° 0 mm 1 mps 752 mmHg 60%
11:00 +24°C° 0 mm 1 mps 752 mmHg 55%
12:00 +23°C° 0 mm 0 mps 752 mmHg 50%
13:00 +25°C° 0 mm 1 mps 752 mmHg 48%
14:00 +25°C° 0 mm 1 mps 751 mmHg 47%
15:00 +26°C° 0 mm 1 mps 751 mmHg 46%
16:00 +26°C° 0 mm 1 mps 751 mmHg 49%
17:00 +25°C° 0 mm 1 mps 751 mmHg 52%
18:00 +25°C° 0 mm 1 mps 751 mmHg 55%
19:00 +23°C° 0 mm 1 mps 751 mmHg 59%
20:00 +21°C° 0 mm 1 mps 750 mmHg 63%
21:00 +19°C° 0 mm 1 mps 750 mmHg 66%
22:00 +19°C° 0 mm 1 mps 750 mmHg 69%
23:00 +18°C° 0 mm 1 mps 750 mmHg 71%

12 July, Sunday

Time Temperature Precipitation Wind Pressure Humidity
00:00 +16°C° 0 mm 1 mps 750 mmHg 74%
01:00 +16°C° 0 mm 1 mps 750 mmHg 75%
02:00 +16°C° 0 mm 1 mps 750 mmHg 77%
03:00 +16°C° 0 mm 1 mps 750 mmHg 78%
04:00 +16°C° 0 mm 1 mps 750 mmHg 78%
05:00 +18°C° 0 mm 1 mps 750 mmHg 79%
06:00 +18°C° 0 mm 1 mps 750 mmHg 79%
07:00 +20°C° 0 mm 1 mps 750 mmHg 74%
08:00 +20°C° 0 mm 2 mps 750 mmHg 70%
09:00 +23°C° 0 mm 2 mps 750 mmHg 65%
10:00 +24°C° 0 mm 2 mps 750 mmHg 60%
11:00 +25°C° 0 mm 2 mps 749 mmHg 56%
12:00 +26°C° 0 mm 2 mps 749 mmHg 51%
13:00 +26°C° 0 mm 2 mps 749 mmHg 49%
14:00 +27°C° 0 mm 2 mps 748 mmHg 47%
15:00 +27°C° 0 mm 2 mps 748 mmHg 46%
16:00 +27°C° 0 mm 2 mps 748 mmHg 51%
17:00 +27°C° 0 mm 2 mps 747 mmHg 57%
18:00 +26°C° 0 mm 2 mps 747 mmHg 62%
19:00 +24°C° 0 mm 2 mps 747 mmHg 65%
20:00 +23°C° 0 mm 2 mps 747 mmHg 68%
21:00 +20°C° 0 mm 2 mps 746 mmHg 71%
22:00 +19°C° 0 mm 2 mps 746 mmHg 74%
23:00 +18°C° 0 mm 2 mps 746 mmHg 77%

13 July, Monday

Time Temperature Precipitation Wind Pressure Humidity
00:00 +18°C° 0 mm 2 mps 746 mmHg 79%
01:00 +18°C° 0 mm 1 mps 746 mmHg 81%
02:00 +18°C° 0 mm 1 mps 745 mmHg 83%
03:00 +16°C° 0 mm 1 mps 745 mmHg 85%
04:00 +18°C° 0 mm 1 mps 745 mmHg 85%
05:00 +17°C° 0 mm 2 mps 744 mmHg 84%
06:00 +18°C° 0 mm 2 mps 744 mmHg 84%
07:00 +19°C° 0 mm 2 mps 744 mmHg 79%
08:00 +21°C° 0 mm 2 mps 744 mmHg 74%
09:00 +24°C° 0 mm 2 mps 744 mmHg 69%
10:00 +25°C° 0 mm 2 mps 743 mmHg 64%
11:00 +26°C° 0 mm 1 mps 743 mmHg 58%
12:00 +27°C° 0 mm 1 mps 743 mmHg 53%
13:00 +27°C° 0 mm 1 mps 743 mmHg 52%
14:00 +27°C° 0 mm 1 mps 742 mmHg 51%
15:00 +28°C° 0 mm 1 mps 742 mmHg 50%
16:00 +27°C° 0 mm 1 mps 741 mmHg 55%
17:00 +27°C° 0 mm 2 mps 741 mmHg 59%
18:00 +27°C° 0 mm 2 mps 740 mmHg 63%
19:00 +25°C° 0 mm 2 mps 741 mmHg 68%
20:00 +23°C° 0 mm 2 mps 741 mmHg 72%
21:00 +21°C° 0 mm 2 mps 741 mmHg 76%
22:00 +20°C° 0 mm 2 mps 741 mmHg 80%
23:00 +19°C° 0 mm 2 mps 740 mmHg 85%
Show more